Regional Weather Roundup
Issued by NWS

Home | Current Version | Previous Version | Text Only | Print | Product List | Glossary On
Versions: 1 2 3 4 5 6 7 8 9 10 11 12 13 14 15 16 17 18 19 20 21 22 23 24 25 26 27 28 29 30 31 32 33 34 35 36 37 38 39 40 41 42 43 44 45 46 47 48 49 50
000
ASUS43 KBIS 220259
RWRND

NORTH DAKOTA REGIONAL WEATHER ROUNDUP
NATIONAL WEATHER SERVICE BISMARCK ND
1000 PM CDT MON JUL 21 2014

NOTE: "FAIR" INDICATES FEW OR NO CLOUDS BELOW 12,000 FEET WITH NO
SIGNIFICANT WEATHER AND/OR OBSTRUCTIONS TO VISIBILITY.


NDZ001>003-009>011-017-220400-
NORTHWEST NORTH DAKOTA

CITY           SKY/WX    TMP DP  RH WIND       PRES   REMARKS
WILLISTON      MOCLDY    71  58  63 E5        29.96R
MINOT          CLOUDY    66  62  87 NW7       29.91R
$$

NDZ018>021-031>035-040>046-220400-
SOUTHWEST NORTH DAKOTA

CITY           SKY/WX    TMP DP  RH WIND       PRES   REMARKS
BISMARCK       CLOUDY    67  63  87 N6        29.88R
DICKINSON      PTCLDY    63  60  90 NE7       29.96R
GARRISON         N/A     65  63  93 NW3       29.92R
HETTINGER ARPT CLEAR     67  61  81 N14G21    29.96R
$$

NDZ004>008-012>016-024-026-027-054-220400-
NORTHEAST NORTH DAKOTA

CITY           SKY/WX    TMP DP  RH WIND       PRES   REMARKS
GRAND FORKS    TSTM      67  67 100 NW25G46   29.81R FOG
GRND FRKS AFB  TSTM      66  66 100 N20G26    29.82S FOG
DEVILS LAKE    CLOUDY    64  59  82 NE20G26   29.79F
$$

NDZ022-023-025-028>030-036>039-047>053-220400-
SOUTHEAST NORTH DAKOTA

CITY           SKY/WX    TMP DP  RH WIND       PRES   REMARKS
FARGO          LGT RAIN  68  65  90 W6        29.75S FOG
$$



USA.gov is the U.S. government's official web portal to all federal, state and local government web resources and services.